Location: Rounton
(54.4000°N, 1.3500°W)
Time: 21:20:31
(UTC+01:00)

deb Delta 126 - Pass Details

Date: 02 July 2022
Orbit: 1120 x 1970 km, 101.5° (Epoch: 17 August)

Event Time Altitude Azimuth Distance (km) Brightness Sun altitude
Rises 00:58:27 0° 35° (NE) 4,909 ? -12.5°
Reaches altitude 10° 01:02:05 10° 22° (NNE) 4,041 ? -12.5°
Maximum altitude 01:08:59 23° 337° (NNW) 3,323 ? -12.5°
Drops below altitude 10° 01:16:21 10° 293° (WNW) 4,358 ? -12.5°
Sets 01:20:29 0° 280° (W) 5,392 ? -12.5°
